�v������,���r���O(���x),�����t���O,���r���O(���x),�����t���O,��1(���x),�����t���O,��2���x),�����t���O,�������x,�����t���O
10/1/2002 0:00,27.8,1,64.3,1,26.5,1,26.4,1,22.5,1
10/1/2002 0:15,27.9,1,64.8,1,26.5,1,26.4,1,22.3,1
10/1/2002 0:30,28.1,1,67,1,26.5,1,26.5,1,22,1
10/1/2002 0:45,28.1,1,66.4,1,26.4,1,26.7,1,22.2,1
10/1/2002 1:00,28,1,67,1,26.6,1,26.7,1,22.1,1
10/1/2002 1:15,28,1,67.7,1,26.8,1,26.6,1,22.1,1
10/1/2002 1:30,27.9,1,68.1,1,26.9,1,26.5,1,22.2,1
10/1/2002 1:45,27.8,1,68.1,1,26.9,1,26.5,1,22.2,1
10/1/2002 2:00,27.8,1,67.8,1,27,1,26.4,1,22.3,1
10/1/2002 2:15,27.8,1,67.4,1,27,1,26.4,1,22.3,1
10/1/2002 2:30,27.8,1,67,1,27,1,26.3,1,22.4,1
10/1/2002 2:45,27.8,1,67.1,1,27,1,26.3,1,22.4,1
10/1/2002 3:00,27.8,1,66.5,1,27,1,26.3,1,22.4,1
10/1/2002 3:15,27.7,1,66.6,1,27,1,26.3,1,22.5,1
10/1/2002 3:30,27.6,1,66.6,1,27,1,26.2,1,22.5,1
10/1/2002 3:45,27.6,1,66.9,1,27,1,26.2,1,22.5,1
10/1/2002 4:00,27.6,1,66.9,1,27,1,26.2,1,22.6,1
10/1/2002 4:15,27.6,1,66.7,1,27,1,26.2,1,22.7,1
10/1/2002 4:30,27.5,1,66.1,1,27,1,26.1,1,22.7,1
10/1/2002 4:45,27.5,1,66.3,1,27,1,26.1,1,22.7,1
10/1/2002 5:00,27.5,1,66.2,1,27,1,26.1,1,22.8,1
10/1/2002 5:15,27.5,1,66.1,1,27,1,26.1,1,22.8,1
10/1/2002 5:30,27.5,1,66.2,1,26.9,1,26.1,1,22.9,1
10/1/2002 5:45,27.4,1,66,1,26.9,1,26.1,1,22.9,1
10/1/2002 6:00,27.5,1,66.1,1,26.9,1,26.1,1,22.9,1
10/1/2002 6:15,27.5,1,66,1,26.9,1,26.1,1,23,1
10/1/2002 6:30,27.5,1,66.4,1,26.9,1,26,1,22.9,1
10/1/2002 6:45,27.5,1,69.3,1,26.9,1,26,1,22.9,1
10/1/2002 7:00,27.6,1,69.1,1,26.8,1,26.1,1,22.9,1
10/1/2002 7:15,27.7,1,69,1,26.7,1,26.1,1,22.3,1
10/1/2002 7:30,27.7,1,68.8,1,26.7,1,26.2,1,22.3,1
10/1/2002 7:45,27.6,1,68.1,1,26.6,1,26.2,1,22.4,1
10/1/2002 8:00,27.5,1,67.4,1,26.6,1,26.1,1,22.4,1
10/1/2002 8:15,27.5,1,67.2,1,26.6,1,26.1,1,22.4,1
10/1/2002 8:30,27.5,1,67.4,1,26.6,1,26,1,22.5,1
10/1/2002 8:45,27.5,1,67.5,1,26.6,1,26,1,22.5,1
10/1/2002 9:00,27.7,1,67.6,1,26.7,1,26,1,22.6,1
10/1/2002 9:15,27.7,1,67.6,1,26.7,1,26,1,22.6,1
10/1/2002 9:30,27.7,1,67.8,1,26.8,1,26,1,22.7,1
10/1/2002 9:45,27.6,1,67.8,1,26.8,1,26,1,22.7,1
10/1/2002 10:00,27.6,1,68.4,1,26.8,1,26,1,22.7,1
10/1/2002 10:15,27.6,1,68,1,26.8,1,26.1,1,22.8,1
10/1/2002 10:30,27.6,1,67.7,1,26.8,1,26,1,22.7,1
10/1/2002 10:45,27.6,1,67.8,1,26.8,1,26.1,1,22.8,1
10/1/2002 11:00,27.5,1,67.7,1,26.7,1,26,1,22.8,1
10/1/2002 11:15,27.4,1,68.2,1,26.7,1,26,1,22.8,1
10/1/2002 11:30,27.5,1,67.9,1,26.7,1,26,1,22.9,1
10/1/2002 11:45,27.5,1,67.8,1,26.6,1,26.1,1,22.9,1
10/1/2002 12:00,27.6,1,67.6,1,26.5,1,26.4,1,22.9,1
10/1/2002 12:15,27.6,1,67.5,1,26.5,1,26.6,1,23,1
10/1/2002 12:30,27.6,1,67.7,1,26.5,1,26.7,1,23,1
10/1/2002 12:45,27.5,1,67.7,1,26.4,1,26.7,1,23,1
10/1/2002 13:00,27.6,1,69.5,1,26.5,1,26.6,1,23.1,1
10/1/2002 13:15,27.6,1,68.6,1,26.6,1,26.5,1,23.1,1
10/1/2002 13:30,27.6,1,68.6,1,26.7,1,26.4,1,23.1,1
10/1/2002 13:45,27.6,1,68.1,1,26.7,1,26.4,1,23.2,1
10/1/2002 14:00,27.6,1,68.1,1,26.7,1,26.3,1,23.2,1
10/1/2002 14:15,27.6,1,67.9,1,26.7,1,26.3,1,23.2,1
10/1/2002 14:30,27.7,1,67.7,1,26.7,1,26.3,1,23.2,1
10/1/2002 14:45,27.6,1,67.5,1,26.7,1,26.2,1,23.3,1
10/1/2002 15:00,27.6,1,67.5,1,26.6,1,26.2,1,23.3,1
10/1/2002 15:15,27.7,1,67.4,1,26.5,1,26.2,1,23.4,1
10/1/2002 15:30,27.7,1,67.1,1,26.5,1,26.2,1,23.4,1
10/1/2002 15:45,27.7,1,66.9,1,26.4,1,26.2,1,23.4,1
10/1/2002 16:00,27.7,1,66.4,1,26.4,1,26.3,1,23.4,1
10/1/2002 16:15,27.6,1,66.4,1,26.4,1,26.5,1,23.5,1
10/1/2002 16:30,27.6,1,66.5,1,26.3,1,26.5,1,23.5,1
10/1/2002 16:45,27.5,1,66.5,1,26.4,1,26.4,1,23.5,1
10/1/2002 17:00,27.5,1,66.3,1,26.4,1,26.3,1,23.6,1
10/1/2002 17:15,27.5,1,66.2,1,26.4,1,26.2,1,23.6,1
10/1/2002 17:30,27.4,1,66.9,1,26.4,1,26.2,1,23.6,1
10/1/2002 17:45,27.4,1,67.2,1,26.5,1,26.1,1,23.6,1
10/1/2002 18:00,27.5,1,67,1,26.5,1,26.1,1,23.7,1
10/1/2002 18:15,27.6,1,66.9,1,26.5,1,26.1,1,23.7,1
10/1/2002 18:30,27.6,1,66.8,1,26.6,1,26.1,1,23.7,1
10/1/2002 18:45,27.6,1,67.2,1,26.6,1,26.1,1,22.7,1
10/1/2002 19:00,27.6,1,67.4,1,26.6,1,26.1,1,22.7,1
10/1/2002 19:15,27.8,1,69.3,1,26.6,1,26.1,1,22.7,1
10/1/2002 19:30,27.9,1,68.7,1,26.7,1,26.1,1,22.8,1
10/1/2002 19:45,28,1,72.3,1,26.8,1,26.2,1,22.8,1
10/1/2002 20:00,27.9,1,71.1,1,26.8,1,26.5,1,22.8,1
10/1/2002 20:15,28,1,71.8,1,26.9,1,26.6,1,22.9,1
10/1/2002 20:30,28,1,71.4,1,27,1,27,1,22.9,1
10/1/2002 20:45,28.3,1,72.2,1,27.1,1,27,1,22.9,1
10/1/2002 21:00,28.2,1,72.2,1,27.2,1,27,1,23,1
10/1/2002 21:15,28.2,1,73.3,1,27.2,1,27,1,23,1
10/1/2002 21:30,28.1,1,73.2,1,27.2,1,27.2,1,23.1,1
10/1/2002 21:45,28.1,1,72.3,1,27.2,1,27.3,1,23.1,1
10/1/2002 22:00,28.2,1,70.5,1,27.1,1,27.4,1,23.4,1
10/1/2002 22:15,28.1,1,69.3,1,27,1,27.4,1,22.3,1
10/1/2002 22:30,28.2,1,69.2,1,26.9,1,27.5,1,22.4,1
10/1/2002 22:45,28.2,1,69.5,1,26.8,1,27.5,1,22.4,1
10/1/2002 23:00,28.2,1,69.7,1,26.8,1,27.5,1,22.4,1
10/1/2002 23:15,28.2,1,70,1,26.8,1,27.5,1,22.4,1
10/1/2002 23:30,28.3,1,69.6,1,26.7,1,27.6,1,22.4,1
10/1/2002 23:45,28.2,1,69.3,1,26.7,1,27.6,1,22.6,1
10/2/2002 0:00,28.2,1,69.1,1,26.7,1,27.4,1,22.7,1
10/2/2002 0:15,28.1,1,69.2,1,26.8,1,27.2,1,22.7,1
10/2/2002 0:30,28.1,1,69,1,26.9,1,27.1,1,22.7,1
10/2/2002 0:45,28,1,68.9,1,27,1,27,1,22.8,1
10/2/2002 1:00,28,1,68.8,1,27.1,1,26.9,1,22.8,1
10/2/2002 1:15,27.9,1,68.8,1,27.1,1,26.8,1,22.8,1
10/2/2002 1:30,27.8,1,68.9,1,27.1,1,26.8,1,22.9,1
10/2/2002 1:45,27.8,1,68.6,1,27.1,1,26.7,1,22.9,1
10/2/2002 2:00,27.8,1,68.4,1,27.1,1,26.7,1,22.9,1
10/2/2002 2:15,27.8,1,68.3,1,27.1,1,26.6,1,23,1
10/2/2002 2:30,27.7,1,68.3,1,27.1,1,26.6,1,23,1
10/2/2002 2:45,27.6,1,68.3,1,27.1,1,26.6,1,23.1,1
10/2/2002 3:00,27.6,1,68.2,1,27.1,1,26.5,1,23.1,1
10/2/2002 3:15,27.7,1,68,1,27.1,1,26.5,1,23.1,1
10/2/2002 3:30,27.7,1,67.9,1,27.1,1,26.5,1,23.2,1
10/2/2002 3:45,27.6,1,67.9,1,27.1,1,26.5,1,23.2,1
10/2/2002 4:00,27.6,1,68,1,27.1,1,26.5,1,23.2,1
10/2/2002 4:15,27.6,1,68,1,27,1,26.4,1,23.3,1
10/2/2002 4:30,27.6,1,67.9,1,27,1,26.4,1,23.3,1
10/2/2002 4:45,27.6,1,67.9,1,27,1,26.4,1,23.4,1
10/2/2002 5:00,27.5,1,67.7,1,27,1,26.4,1,23.4,1
10/2/2002 5:15,27.5,1,67.7,1,27,1,26.3,1,23.4,1
10/2/2002 5:30,27.5,1,67.5,1,26.9,1,26.3,1,23.5,1
10/2/2002 5:45,27.5,1,67.4,1,26.9,1,26.3,1,23.5,1
10/2/2002 6:00,27.6,1,67.2,1,26.9,1,26.3,1,23.5,1
10/2/2002 6:15,27.6,1,67.1,1,26.9,1,26.3,1,23.4,1
10/2/2002 6:30,27.5,1,65.5,1,26.9,1,25.4,1,23.3,1
10/2/2002 6:45,27.3,1,63,1,26.8,1,24.5,1,23.3,1
10/2/2002 7:00,27.4,1,65.9,1,26.8,1,24.1,1,23.4,1
10/2/2002 7:15,27.3,1,62.2,1,26.9,1,24,1,22.3,1
10/2/2002 7:30,27.3,1,63.1,1,27,1,24.4,1,22.3,1
10/2/2002 7:45,27.3,1,62.2,1,27.1,1,24.5,1,22.4,1
10/2/2002 8:00,27.5,1,61.4,1,27.2,1,24.8,1,22.4,1
10/2/2002 8:15,27.5,1,60.5,1,27.3,1,25.2,1,22.5,1
10/2/2002 8:30,27.4,1,59.8,1,27.4,1,25.5,1,22.5,1
10/2/2002 8:45,27.4,1,60.1,1,27.6,1,25.7,1,22.2,1
10/2/2002 9:00,27.5,1,60.1,1,27.8,1,25.9,1,22.3,1
10/2/2002 9:15,27.6,1,59.7,1,27.9,1,26.2,1,22.3,1
10/2/2002 9:30,27.6,1,60,1,28,1,26.4,1,22.4,1
10/2/2002 9:45,27.7,1,59.5,1,28.2,1,26.6,1,22.4,1
10/2/2002 10:00,27.8,1,58.6,1,28.3,1,26.8,1,22.4,1
10/2/2002 10:15,27.9,1,57.8,1,28.4,1,26.9,1,22.5,1
10/2/2002 10:30,28,1,55.1,1,28.6,1,27,1,22.5,1
10/2/2002 10:45,27.9,1,54.5,1,28.6,1,27,1,22.5,1
10/2/2002 11:00,27.9,1,56.2,1,28.7,1,27,1,22.6,1
10/2/2002 11:15,28,1,57.5,1,28.7,1,27.1,1,22.6,1
10/2/2002 11:30,28,1,58,1,28.6,1,27.1,1,22.7,1
10/2/2002 11:45,28.1,1,58.4,1,28.6,1,27.1,1,22.7,1
10/2/2002 12:00,28.1,1,58.9,1,28.6,1,27.1,1,22.7,1
10/2/2002 12:15,28.1,1,59.2,1,28.6,1,27.1,1,22.8,1
10/2/2002 12:30,28.1,1,55.4,1,28.5,1,27.2,1,22.8,1
10/2/2002 12:45,27.9,1,52.7,1,28.6,1,27.4,1,22.9,1
10/2/2002 13:00,28.1,1,52.2,1,28.6,1,27.6,1,22.9,1
10/2/2002 13:15,28.1,1,53.2,1,28.6,1,27.6,1,22.9,1
10/2/2002 13:30,28,1,53.9,1,28.5,1,27.5,1,23,1
10/2/2002 13:45,28.1,1,53.8,1,28.4,1,27.5,1,23,1
10/2/2002 14:00,28,1,54.3,1,28.3,1,27.4,1,23.1,1
10/2/2002 14:15,28,1,54.4,1,28.3,1,27.3,1,23.1,1
10/2/2002 14:30,27.9,1,55.4,1,28.2,1,27.3,1,23.1,1
10/2/2002 14:45,27.8,1,55.9,1,28.2,1,27.3,1,23.2,1
10/2/2002 15:00,27.8,1,56.1,1,28.1,1,27.5,1,23.2,1
10/2/2002 15:15,27.8,1,56.5,1,28.1,1,27.4,1,23.2,1
10/2/2002 15:30,27.8,1,56.3,1,28,1,27.3,1,23.3,1
10/2/2002 15:45,27.8,1,56.5,1,28,1,27.3,1,23.3,1
10/2/2002 16:00,27.8,1,56.9,1,27.9,1,27.2,1,23.3,1
10/2/2002 16:15,27.7,1,56.9,1,27.8,1,27.2,1,23.4,1
10/2/2002 16:30,27.8,1,56.6,1,27.8,1,27.1,1,23.4,1
10/2/2002 16:45,27.8,1,56.7,1,27.7,1,27.1,1,23.4,1
10/2/2002 17:00,27.8,1,56.5,1,27.7,1,27.1,1,23.5,1
10/2/2002 17:15,27.8,1,58.4,1,27.6,1,27.1,1,23.5,1
10/2/2002 17:30,28.1,1,61.2,1,27.6,1,27,1,23.5,1
10/2/2002 17:45,28.1,1,60.1,1,27.6,1,27,1,23.6,1
10/2/2002 18:00,28.1,1,60,1,27.6,1,27,1,23.6,1
10/2/2002 18:15,28.1,1,59.9,1,27.6,1,27,1,23.6,1
10/2/2002 18:30,28.1,1,61.7,1,27.6,1,27,1,23.7,1
10/2/2002 18:45,28.2,1,60.1,1,27.6,1,27,1,23.7,1
10/2/2002 19:00,28.5,1,65.2,1,27.6,1,27,1,23.8,1
10/2/2002 19:15,28.3,1,61.7,1,27.6,1,27,1,23.8,1
10/2/2002 19:30,28.3,1,61.5,1,27.5,1,27,1,23,1
10/2/2002 19:45,28.2,1,61.7,1,27.5,1,27,1,23,1
10/2/2002 20:00,28.2,1,64.2,1,27.5,1,27,1,23,1
10/2/2002 20:15,28.2,1,63.1,1,27.5,1,27,1,23.1,1
10/2/2002 20:30,28.2,1,63.6,1,27.5,1,27,1,23.1,1
10/2/2002 20:45,28.3,1,64,1,27.6,1,27.1,1,23,1
10/2/2002 21:00,28.3,1,64.2,1,27.6,1,27.1,1,23.1,1
10/2/2002 21:15,28.3,1,64.3,1,27.6,1,27.1,1,23.1,1
10/2/2002 21:30,28.5,1,66.3,1,27.6,1,27.1,1,22.4,1
10/2/2002 21:45,28.4,1,64.2,1,27.7,1,27.2,1,22.5,1
10/2/2002 22:00,28.4,1,64.4,1,27.7,1,27.4,1,22.5,1
10/2/2002 22:15,28.6,1,65.9,1,27.7,1,27.6,1,22.5,1
10/2/2002 22:30,28.6,1,65.8,1,27.8,1,27.7,1,22.6,1
10/2/2002 22:45,28.6,1,66.1,1,27.8,1,27.8,1,22.7,1
10/2/2002 23:00,28.6,1,65.6,1,27.8,1,27.9,1,22.7,1
10/2/2002 23:15,28.6,1,65.7,1,27.8,1,28,1,22.7,1
10/2/2002 23:30,28.7,1,66.2,1,27.8,1,28,1,22.2,1
10/2/2002 23:45,28.7,1,65.3,1,27.8,1,27.9,1,21.9,1
10/3/2002 0:00,28.6,1,65.7,1,27.9,1,27.8,1,21.9,1
10/3/2002 0:15,28.6,1,65.7,1,27.9,1,27.7,1,22,1
10/3/2002 0:30,28.4,1,65.7,1,27.9,1,27.6,1,22,1
10/3/2002 0:45,28.4,1,65.7,1,27.9,1,27.5,1,22.1,1
10/3/2002 1:00,28.4,1,65.5,1,27.9,1,27.4,1,22.1,1
10/3/2002 1:15,28.3,1,65.2,1,27.9,1,27.4,1,22.2,1
10/3/2002 1:30,28.3,1,65.1,1,27.8,1,27.3,1,22.2,1
10/3/2002 1:45,28.2,1,65.3,1,27.9,1,27.3,1,22.3,1
10/3/2002 2:00,28.2,1,65.4,1,27.9,1,27.2,1,22.3,1
10/3/2002 2:15,28.2,1,65.3,1,27.9,1,27.2,1,22.4,1
10/3/2002 2:30,28.2,1,65.5,1,27.9,1,27.2,1,22.4,1
10/3/2002 2:45,28.2,1,65.3,1,27.9,1,27.1,1,22.5,1
10/3/2002 3:00,28.1,1,65.4,1,27.8,1,27.1,1,22.5,1
10/3/2002 3:15,28.1,1,65.4,1,27.8,1,27.1,1,22.6,1
10/3/2002 3:30,28.1,1,65.4,1,27.8,1,27.1,1,22.6,1
10/3/2002 3:45,28.1,1,65.3,1,27.8,1,27,1,22.7,1
10/3/2002 4:00,28,1,65.3,1,27.8,1,27,1,22.7,1
10/3/2002 4:15,28,1,65.5,1,27.8,1,27,1,22.8,1
10/3/2002 4:30,28,1,65.3,1,27.8,1,27,1,22.8,1
10/3/2002 4:45,28,1,65.1,1,27.7,1,27,1,22.9,1
10/3/2002 5:00,28,1,65.3,1,27.7,1,26.9,1,22.9,1
10/3/2002 5:15,28,1,65.2,1,27.7,1,26.9,1,23,1
10/3/2002 5:30,28,1,65.2,1,27.7,1,26.9,1,23,1
10/3/2002 5:45,28,1,65.1,1,27.7,1,26.9,1,23.1,1
10/3/2002 6:00,27.9,1,65.1,1,27.7,1,26.9,1,23.1,1
10/3/2002 6:15,27.9,1,65,1,27.7,1,26.9,1,23.2,1
10/3/2002 6:30,27.9,1,63.7,1,27.7,1,26.2,1,23.2,1
10/3/2002 6:45,27.8,1,59.2,1,27.7,1,25.3,1,23.3,1
10/3/2002 7:00,28,1,63.1,1,27.6,1,25.2,1,23.3,1
10/3/2002 7:15,27.7,1,57.5,1,27.5,1,24.9,1,22.4,1
10/3/2002 7:30,27.6,1,58,1,27.5,1,24.7,1,22.4,1
10/3/2002 7:45,27.6,1,57.2,1,27.5,1,24.7,1,22.5,1
10/3/2002 8:00,27.6,1,56.6,1,27.5,1,24.8,1,22.5,1
10/3/2002 8:15,27.4,1,56.3,1,27.5,1,24.9,1,22.1,1
10/3/2002 8:30,27.5,1,56,1,27.6,1,25.3,1,22.2,1
10/3/2002 8:45,27.5,1,55.7,1,27.8,1,25.5,1,22.2,1
10/3/2002 9:00,27.7,1,55.7,1,27.6,1,25.4,1,22.2,1
10/3/2002 9:15,27.6,1,55.5,1,27.5,1,25.5,1,22.3,1
10/3/2002 9:30,27.5,1,55.4,1,27.4,1,25.7,1,22.3,1
10/3/2002 9:45,27.6,1,56,1,27.5,1,25.9,1,22.4,1
10/3/2002 10:00,27.6,1,56.3,1,27.5,1,26,1,22.4,1
10/3/2002 10:15,27.5,1,55.8,1,27.4,1,26,1,22.5,1
10/3/2002 10:30,27.5,1,55.8,1,27.4,1,26,1,22.5,1
10/3/2002 10:45,27.6,1,55.9,1,27.6,1,26.2,1,22.5,1
10/3/2002 11:00,27.6,1,56.4,1,27.8,1,26.4,1,22.6,1
10/3/2002 11:15,27.6,1,57.6,1,28,1,26.5,1,22.6,1
10/3/2002 11:30,27.8,1,57.9,1,28.1,1,26.6,1,22.7,1
10/3/2002 11:45,27.8,1,55.9,1,28.2,1,26.8,1,22.7,1
10/3/2002 12:00,28,1,57,1,28.1,1,26.8,1,22.7,1
10/3/2002 12:15,27.9,1,55.7,1,28,1,26.8,1,22.8,1
10/3/2002 12:30,27.9,1,54.7,1,27.9,1,26.8,1,22.8,1
10/3/2002 12:45,28,1,56.5,1,27.8,1,26.8,1,22.9,1
10/3/2002 13:00,27.8,1,54.5,1,27.8,1,26.8,1,22.9,1
10/3/2002 13:15,27.8,1,53.7,1,27.7,1,26.7,1,22.9,1
10/3/2002 13:30,27.7,1,52.3,1,27.6,1,26.7,1,23,1
10/3/2002 13:45,27.8,1,53.4,1,27.5,1,26.7,1,23,1
10/3/2002 14:00,27.8,1,53.5,1,27.6,1,26.8,1,23,1
10/3/2002 14:15,27.8,1,53.7,1,27.6,1,26.8,1,23.1,1
10/3/2002 14:30,27.8,1,53.6,1,27.6,1,26.8,1,23.1,1
10/3/2002 14:45,27.8,1,53.9,1,27.6,1,26.8,1,23.2,1
10/3/2002 15:00,27.8,1,54,1,27.7,1,26.8,1,23.2,1
10/3/2002 15:15,27.7,1,53.9,1,27.7,1,26.8,1,23.2,1
10/3/2002 15:30,27.7,1,53.6,1,27.7,1,26.7,1,23.3,1
10/3/2002 15:45,27.7,1,53.1,1,27.7,1,26.6,1,23.3,1
10/3/2002 16:00,27.7,1,53.3,1,27.7,1,26.6,1,23.3,1
10/3/2002 16:15,27.7,1,53.2,1,27.7,1,26.5,1,23.4,1
10/3/2002 16:30,27.7,1,52.9,1,27.7,1,26.5,1,23.4,1
10/3/2002 16:45,27.7,1,54.6,1,27.6,1,26.6,1,23.4,1
10/3/2002 17:00,27.8,1,55.1,1,27.5,1,26.6,1,23.5,1
10/3/2002 17:15,27.8,1,54.9,1,27.5,1,26.6,1,23.5,1
10/3/2002 17:30,27.9,1,55,1,27.5,1,26.6,1,23.6,1
10/3/2002 17:45,28,1,55.5,1,27.5,1,26.6,1,23.6,1
10/3/2002 18:00,28.1,1,57.8,1,27.5,1,26.7,1,23.6,1
10/3/2002 18:15,28.1,1,58.3,1,27.5,1,26.8,1,23.6,1
10/3/2002 18:30,28.1,1,58.9,1,27.5,1,26.8,1,23.7,1
10/3/2002 18:45,28.1,1,61.5,1,27.5,1,26.8,1,23.7,1
10/3/2002 19:00,28.1,1,60.3,1,27.5,1,26.8,1,23.8,1
10/3/2002 19:15,28.1,1,60.2,1,27.5,1,26.8,1,23.8,1
10/3/2002 19:30,28.1,1,60.7,1,27.5,1,26.8,1,23.8,1
10/3/2002 19:45,28.2,1,60.7,1,27.5,1,26.9,1,23.8,1
10/3/2002 20:00,28.2,1,61.6,1,27.5,1,26.9,1,22.7,1
10/3/2002 20:15,28.2,1,61.1,1,27.5,1,26.9,1,22.8,1
10/3/2002 20:30,28.3,1,63.2,1,27.5,1,27,1,22.8,1
10/3/2002 20:45,28.3,1,63.2,1,27.6,1,27,1,22.9,1
10/3/2002 21:00,28.3,1,63.7,1,27.6,1,27.1,1,22.9,1
10/3/2002 21:15,28.3,1,63.9,1,27.6,1,27.1,1,22.9,1
10/3/2002 21:30,28.4,1,63.8,1,27.6,1,27.1,1,23,1
10/3/2002 21:45,28.4,1,63.5,1,27.6,1,27.1,1,23,1
10/3/2002 22:00,28.4,1,63.1,1,27.6,1,27.1,1,23,1
10/3/2002 22:15,28.4,1,62.9,1,27.6,1,27.1,1,23.1,1
10/3/2002 22:30,28.4,1,63,1,27.6,1,27.1,1,23.1,1
10/3/2002 22:45,28.4,1,68.3,1,27.6,1,27.1,1,23.2,1
10/3/2002 23:00,28.4,1,63.8,1,27.7,1,27.1,1,23.2,1
10/3/2002 23:15,28.5,1,64.1,1,27.7,1,27.3,1,23.2,1
10/3/2002 23:30,28.6,1,66,1,27.7,1,27.3,1,22.5,1
10/3/2002 23:45,28.6,1,66.3,1,27.7,1,27.3,1,22.5,1
10/4/2002 0:00,28.6,1,65.9,1,27.7,1,27.3,1,22.3,1
10/4/2002 0:15,28.5,1,65.8,1,27.8,1,27.2,1,22.3,1
10/4/2002 0:30,28.4,1,65.7,1,27.8,1,27.2,1,22.4,1
10/4/2002 0:45,28.4,1,65.8,1,27.8,1,27.2,1,22.4,1
10/4/2002 1:00,28.4,1,65.6,1,27.8,1,27.1,1,22.5,1
10/4/2002 1:15,28.3,1,65.5,1,27.8,1,27.1,1,22.5,1
10/4/2002 1:30,28.3,1,65.2,1,27.8,1,27.1,1,22.5,1
10/4/2002 1:45,28.2,1,65.3,1,27.8,1,27.1,1,22.5,1
10/4/2002 2:00,28.1,1,65.5,1,27.8,1,27,1,22.4,1
10/4/2002 2:15,28.2,1,65.5,1,27.8,1,27,1,22.5,1
10/4/2002 2:30,28.2,1,65.3,1,27.8,1,27,1,22.6,1
10/4/2002 2:45,28.1,1,65.1,1,27.8,1,27,1,22.7,1
10/4/2002 3:00,28.1,1,65,1,27.8,1,27,1,22.8,1
10/4/2002 3:15,28,1,65.1,1,27.8,1,27,1,22.8,1
10/4/2002 3:30,28.1,1,65.1,1,27.8,1,26.9,1,22.9,1
10/4/2002 3:45,28.1,1,64.8,1,27.7,1,26.9,1,22.9,1
10/4/2002 4:00,28.1,1,64.7,1,27.7,1,26.9,1,23,1
10/4/2002 4:15,28.1,1,64.5,1,27.7,1,26.9,1,23,1
10/4/2002 4:30,28.1,1,64.5,1,27.7,1,26.9,1,23.1,1
10/4/2002 4:45,28.1,1,64.4,1,27.7,1,26.9,1,23,1
10/4/2002 5:00,28,1,64.3,1,27.7,1,26.9,1,23.1,1
10/4/2002 5:15,28,1,64.4,1,27.7,1,26.8,1,23.2,1
10/4/2002 5:30,28,1,64.2,1,27.7,1,26.8,1,23.2,1
10/4/2002 5:45,28,1,64.2,1,27.7,1,26.8,1,23.3,1
10/4/2002 6:00,28,1,64.1,1,27.7,1,26.8,1,23.3,1
10/4/2002 6:15,27.9,1,64,1,27.6,1,26.8,1,23.4,1
10/4/2002 6:30,27.9,1,62.5,1,27.6,1,26.3,1,23.2,1
10/4/2002 6:45,27.9,1,60.4,1,27.6,1,25.4,1,23.3,1
10/4/2002 7:00,27.9,1,60.6,1,27.5,1,24.6,1,23.3,1
10/4/2002 7:15,27.8,1,57.8,1,27.5,1,24.3,1,22.5,1
10/4/2002 7:30,27.8,1,58.6,1,27.5,1,24.5,1,22.5,1
10/4/2002 7:45,27.6,1,57.6,1,27.4,1,24.6,1,22.5,1
10/4/2002 8:00,27.8,1,57.1,1,27.3,1,24.8,1,22.6,1
10/4/2002 8:15,27.8,1,56.3,1,27.4,1,24.9,1,22.6,1
10/4/2002 8:30,27.7,1,55.5,1,27.5,1,25.1,1,22.7,1
10/4/2002 8:45,27.8,1,55.9,1,27.6,1,25.4,1,23.1,1
10/4/2002 9:00,27.8,1,55.6,1,27.7,1,25.7,1,22.3,1
10/4/2002 9:15,27.8,1,55.7,1,27.8,1,25.9,1,22.3,1
10/4/2002 9:30,27.8,1,55.3,1,27.9,1,26,1,22.4,1
10/4/2002 9:45,27.8,1,56.2,1,28.1,1,26.4,1,22.4,1
10/4/2002 10:00,27.9,1,56.8,1,28.3,1,26.7,1,22.5,1
10/4/2002 10:15,28,1,57.1,1,28.4,1,26.9,1,22.5,1
10/4/2002 10:30,28.1,1,57.3,1,28.5,1,27.1,1,22.5,1
10/4/2002 10:45,28,1,57.8,1,28.7,1,27.2,1,22.6,1
10/4/2002 11:00,28,1,56.5,1,28.8,1,27.3,1,22.6,1
10/4/2002 11:15,27.9,1,52.3,1,28.9,1,27.6,1,22.7,1
10/4/2002 11:30,27.9,1,51.5,1,29.1,1,27.8,1,22.7,1
10/4/2002 11:45,28,1,51.6,1,29.1,1,27.8,1,22.7,1
10/4/2002 12:00,28.1,1,51.3,1,29.1,1,27.7,1,22.8,1
10/4/2002 12:15,28.2,1,51,1,29,1,27.8,1,22.8,1
10/4/2002 12:30,28.3,1,49.3,1,28.9,1,28,1,22.9,1
10/4/2002 12:45,28.3,1,49.2,1,28.9,1,28,1,22.9,1
10/4/2002 13:00,28.3,1,47,1,28.9,1,28,1,22.9,1
10/4/2002 13:15,28.3,1,46.4,1,28.9,1,28.1,1,23,1
10/4/2002 13:30,28.3,1,47.2,1,28.9,1,28.1,1,23,1
10/4/2002 13:45,28.3,1,48.4,1,28.8,1,28,1,23.1,1
10/4/2002 14:00,28.3,1,47.6,1,28.7,1,28.1,1,23.1,1
10/4/2002 14:15,28.3,1,46.8,1,28.7,1,28.3,1,23.1,1
10/4/2002 14:30,28.3,1,45.8,1,28.7,1,28.4,1,23.2,1
10/4/2002 14:45,28.3,1,43.1,1,28.6,1,28.4,1,23.2,1
10/4/2002 15:00,28.2,1,41.9,1,28.5,1,28.4,1,23.3,1
10/4/2002 15:15,28.1,1,40.5,1,28.4,1,28.4,1,23.3,1
10/4/2002 15:30,28,1,38.7,1,28.3,1,28.3,1,23.3,1
10/4/2002 15:45,28,1,39.2,1,28.2,1,28.2,1,23.4,1
10/4/2002 16:00,28.1,1,38.8,1,28.2,1,28.2,1,23.4,1
10/4/2002 16:15,28,1,39.3,1,28.1,1,28,1,23.5,1
10/4/2002 16:30,28,1,39.8,1,28,1,27.9,1,23.5,1
10/4/2002 16:45,28.1,1,41.4,1,28,1,27.8,1,23.5,1
10/4/2002 17:00,28.2,1,43.6,1,28,1,27.8,1,23.6,1
10/4/2002 17:15,28.3,1,44.7,1,28,1,27.7,1,23.6,1
10/4/2002 17:30,28.4,1,46.1,1,28,1,27.6,1,23.6,1
10/4/2002 17:45,28.4,1,47.7,1,28,1,27.6,1,23.7,1
10/4/2002 18:00,28.4,1,50,1,28,1,27.5,1,23.7,1
10/4/2002 18:15,28.5,1,52.4,1,28,1,27.5,1,23.8,1
10/4/2002 18:30,28.6,1,52.5,1,28,1,27.5,1,23.8,1
10/4/2002 18:45,28.6,1,52.4,1,27.9,1,27.5,1,23.8,1
10/4/2002 19:00,28.6,1,53.2,1,27.9,1,27.6,1,23.9,1
10/4/2002 19:15,28.6,1,53.3,1,27.9,1,27.6,1,23.9,1
10/4/2002 19:30,28.6,1,53.9,1,27.9,1,27.6,1,23.9,1
10/4/2002 19:45,28.6,1,54,1,27.9,1,27.5,1,23.2,1
10/4/2002 20:00,28.6,1,57.3,1,28,1,27.5,1,23.3,1
10/4/2002 20:15,28.5,1,56.8,1,28,1,27.6,1,23.3,1
10/4/2002 20:30,28.6,1,57,1,28,1,27.6,1,23.4,1
10/4/2002 20:45,28.7,1,58.1,1,28,1,27.6,1,22.7,1
10/4/2002 21:00,28.9,1,59.6,1,28.1,1,27.7,1,22.7,1
10/4/2002 21:15,28.8,1,59.2,1,28.2,1,27.7,1,22.7,1
10/4/2002 21:30,28.8,1,60.2,1,28.2,1,27.7,1,22.8,1
10/4/2002 21:45,28.8,1,60.7,1,28.2,1,28,1,22.8,1
10/4/2002 22:00,28.8,1,61,1,28.2,1,28.1,1,22.9,1
10/4/2002 22:15,28.8,1,60.9,1,28.2,1,28.2,1,22.9,1
10/4/2002 22:30,28.9,1,60.6,1,28.2,1,28.2,1,22.9,1
10/4/2002 22:45,28.9,1,60.9,1,28.2,1,28.2,1,23,1
10/4/2002 23:00,28.8,1,61.1,1,28.3,1,28.2,1,23.4,1
10/4/2002 23:15,28.9,1,61.9,1,28.3,1,28.2,1,22.5,1
10/4/2002 23:30,28.9,1,62,1,28.3,1,28.3,1,22.5,1
10/4/2002 23:45,28.9,1,62,1,28.2,1,28.4,1,22.6,1
10/5/2002 0:00,28.8,1,61.8,1,28.3,1,28.2,1,22.6,1
10/5/2002 0:15,28.8,1,62,1,28.3,1,28.1,1,22.7,1
10/5/2002 0:30,28.7,1,61.8,1,28.3,1,28,1,22.7,1
10/5/2002 0:45,28.6,1,61.6,1,28.3,1,27.9,1,22.8,1
10/5/2002 1:00,28.6,1,61.5,1,28.3,1,27.8,1,22.8,1
10/5/2002 1:15,28.6,1,61.2,1,28.3,1,27.8,1,22.9,1
10/5/2002 1:30,28.6,1,60.9,1,28.2,1,27.7,1,22.9,1
10/5/2002 1:45,28.5,1,60.8,1,28.2,1,27.7,1,22.9,1
10/5/2002 2:00,28.4,1,60.9,1,28.2,1,27.6,1,23,1
10/5/2002 2:15,28.5,1,60.9,1,28.2,1,27.6,1,23,1
10/5/2002 2:30,28.5,1,61,1,28.2,1,27.6,1,23.1,1
10/5/2002 2:45,28.5,1,60.9,1,28.2,1,27.5,1,23.1,1
10/5/2002 3:00,28.5,1,60.7,1,28.2,1,27.5,1,23.2,1
10/5/2002 3:15,28.4,1,60.6,1,28.2,1,27.5,1,23.2,1
10/5/2002 3:30,28.3,1,61,1,28.2,1,27.5,1,23.2,1
10/5/2002 3:45,28.4,1,60.9,1,28.1,1,27.4,1,23.3,1
10/5/2002 4:00,28.4,1,60.9,1,28.1,1,27.4,1,23.3,1
10/5/2002 4:15,28.3,1,60.7,1,28.1,1,27.4,1,23.4,1
10/5/2002 4:30,28.3,1,60.5,1,28.1,1,27.4,1,23.4,1
10/5/2002 4:45,28.3,1,60.8,1,28.1,1,27.3,1,23.5,1
10/5/2002 5:00,28.3,1,60.8,1,28,1,27.3,1,23.5,1
10/5/2002 5:15,28.3,1,60.6,1,28,1,27.3,1,23.6,1
10/5/2002 5:30,28.3,1,60.6,1,28,1,27.3,1,23.6,1
10/5/2002 5:45,28.2,1,60.4,1,28,1,27.3,1,23.6,1
10/5/2002 6:00,28.2,1,60.5,1,28,1,27.2,1,23.7,1
10/5/2002 6:15,28.3,1,60.4,1,28,1,27.2,1,23.7,1
10/5/2002 6:30,28.2,1,60.4,1,28,1,27.2,1,23.8,1
10/5/2002 6:45,28.2,1,60.5,1,28,1,27.2,1,23.8,1
10/5/2002 7:00,28.2,1,60.6,1,28,1,27.2,1,23.8,1
10/5/2002 7:15,28.2,1,60.6,1,28.1,1,27.2,1,23.9,1
10/5/2002 7:30,28.2,1,60.6,1,28.1,1,27.3,1,23.9,1
10/5/2002 7:45,28.2,1,60.8,1,28.2,1,27.3,1,23.9,1
10/5/2002 8:00,28.2,1,60.9,1,28.3,1,27.3,1,24,1
10/5/2002 8:15,28.3,1,60.3,1,28.4,1,27.2,1,23.1,1
10/5/2002 8:30,28.4,1,56.5,1,28.4,1,26.7,1,23.2,1
10/5/2002 8:45,28.3,1,55.1,1,28.3,1,26.8,1,23,1
10/5/2002 9:00,28.3,1,54.8,1,28.3,1,27,1,22.4,1
10/5/2002 9:15,28.3,1,54.4,1,28.4,1,27,1,22.4,1
10/5/2002 9:30,28.4,1,54.6,1,28.5,1,27,1,22.5,1
10/5/2002 9:45,28.4,1,52.9,1,28.5,1,27.1,1,22.1,1
10/5/2002 10:00,28.3,1,52.5,1,28.6,1,27.3,1,22.1,1
10/5/2002 10:15,28.3,1,53.1,1,28.6,1,27.4,1,22.2,1
10/5/2002 10:30,28.3,1,51.9,1,28.7,1,27.5,1,22.2,1
10/5/2002 10:45,28.3,1,50.8,1,29,1,27.6,1,22.2,1
10/5/2002 11:00,28.3,1,50.9,1,29.2,1,27.6,1,22.4,1
10/5/2002 11:15,28.3,1,51.4,1,29.3,1,28,1,22.4,1
10/5/2002 11:30,28.2,1,50.7,1,29.3,1,28.1,1,22.4,1
10/5/2002 11:45,28.3,1,50.8,1,29.4,1,28.1,1,22.5,1
10/5/2002 12:00,28.4,1,49.9,1,29.3,1,28.3,1,22.5,1
10/5/2002 12:15,28.4,1,49.8,1,29.1,1,28.5,1,22.7,1
10/5/2002 12:30,28.4,1,49,1,29.1,1,28.5,1,22.8,1
10/5/2002 12:45,28.5,1,50.8,1,29.1,1,28.6,1,22.8,1
10/5/2002 13:00,28.5,1,51.6,1,29.1,1,28.6,1,22.8,1
10/5/2002 13:15,28.6,1,52.1,1,29.1,1,28.5,1,22.9,1
10/5/2002 13:30,28.5,1,52.1,1,29.1,1,28.4,1,22.9,1
10/5/2002 13:45,28.5,1,52.9,1,29.1,1,28.3,1,22.9,1
10/5/2002 14:00,28.5,1,52.9,1,29,1,28.2,1,23,1
10/5/2002 14:15,28.5,1,53.2,1,28.9,1,28.2,1,23,1
10/5/2002 14:30,28.5,1,53.8,1,28.8,1,28.1,1,23.1,1
10/5/2002 14:45,28.4,1,54,1,28.7,1,28.1,1,23.1,1
10/5/2002 15:00,28.4,1,52.6,1,28.7,1,28,1,23.2,1
10/5/2002 15:15,28.3,1,50.8,1,28.5,1,28,1,23.2,1
10/5/2002 15:30,28.3,1,50.1,1,28.3,1,27.9,1,23.2,1
10/5/2002 15:45,28.2,1,50.5,1,28.3,1,27.8,1,23.3,1
10/5/2002 16:00,28.2,1,50.8,1,28.2,1,27.7,1,23.3,1
10/5/2002 16:15,28.3,1,51,1,28.2,1,27.6,1,23.4,1
10/5/2002 16:30,28.3,1,51,1,28.1,1,27.3,1,23.4,1
10/5/2002 16:45,28.3,1,51,1,28.1,1,27.2,1,23.4,1
10/5/2002 17:00,28.3,1,50.3,1,28.1,1,27.1,1,23.5,1
10/5/2002 17:15,28.2,1,50.1,1,28.1,1,26.9,1,23.5,1
10/5/2002 17:30,28.2,1,51.1,1,28.1,1,27.1,1,23.2,1
10/5/2002 17:45,28.2,1,52.1,1,28,1,27.2,1,22.8,1
10/5/2002 18:00,28.2,1,52.2,1,28,1,27.4,1,22.9,1
10/5/2002 18:15,28.2,1,52.6,1,27.9,1,27.4,1,22.9,1
10/5/2002 18:30,28.2,1,52.8,1,27.9,1,27.4,1,22.9,1
10/5/2002 18:45,28.3,1,53,1,27.9,1,27.4,1,23,1
10/5/2002 19:00,28.2,1,53.5,1,27.9,1,27.4,1,23,1
10/5/2002 19:15,28.1,1,53.9,1,27.8,1,27.4,1,23,1
10/5/2002 19:30,28.1,1,53.9,1,27.8,1,27.3,1,23.1,1
10/5/2002 19:45,28.2,1,54.8,1,27.8,1,27.6,1,23.1,1
10/5/2002 20:00,28.3,1,55.2,1,27.8,1,27.9,1,23.2,1
10/5/2002 20:15,28.5,1,59.5,1,27.8,1,28,1,23.2,1
10/5/2002 20:30,28.5,1,60.5,1,27.9,1,28.1,1,23.2,1
10/5/2002 20:45,28.5,1,60.7,1,28,1,28.2,1,23.3,1
10/5/2002 21:00,29,1,62.6,1,28,1,28.2,1,23.3,1
10/5/2002 21:15,29,1,60.8,1,28.2,1,28.2,1,23.4,1
10/5/2002 21:30,29,1,58.2,1,28.2,1,27.9,1,23.4,1
10/5/2002 21:45,29,1,58.6,1,28.2,1,27.8,1,23.4,1